Time,TemperatureF,DewpointF,PressureIn,WindDirection,WindDirectionDegrees,WindSpeedMPH,WindSpeedGustMPH,Humidity,HourlyPrecipIn,Conditions,Clouds,dailyrainin,SoftwareType,DateUTC
2013-01-10 00:00:00,39.1,32.0,29.84,WNW,292,8.9,18.9,76,0.00,,,0.01,Rainwise IP-100,2013-01-10 05:00:00,
2013-01-10 00:05:00,39.1,32.0,29.83,West,270,7.7,19.6,76,0.00,,,0.00,Rainwise IP-100,2013-01-10 05:05:00,
2013-01-10 00:10:00,38.9,32.0,29.84,SW,225,14.5,18.4,76,0.00,,,0.00,Rainwise IP-100,2013-01-10 05:10:00,
2013-01-10 00:15:00,38.8,32.0,29.82,West,270,9.3,15.4,75,0.00,,,0.00,Rainwise IP-100,2013-01-10 05:15:00,
2013-01-10 00:20:00,38.8,32.0,29.82,WNW,292,7.0,14.7,74,0.00,,,0.00,Rainwise IP-100,2013-01-10 05:20:00,
2013-01-10 00:25:00,38.7,32.0,29.84,West,270,11.7,14.2,74,0.00,,,0.00,Rainwise IP-100,2013-01-10 05:25:00,
2013-01-10 00:30:00,38.6,32.0,29.82,WNW,292,7.5,18.2,74,0.00,,,0.00,Rainwise IP-100,2013-01-10 05:30:00,
2013-01-10 00:35:00,38.4,31.0,29.82,West,270,9.3,16.1,74,0.00,,,0.00,Rainwise IP-100,2013-01-10 05:35:00,
2013-01-10 00:40:00,38.2,31.0,29.83,West,270,5.6,15.9,74,0.00,,,0.00,Rainwise IP-100,2013-01-10 05:40:00,
2013-01-10 00:45:00,38.2,31.0,29.83,West,270,4.0,13.3,74,0.00,,,0.00,Rainwise IP-100,2013-01-10 05:45:00,
2013-01-10 00:50:00,38.1,31.0,29.83,West,270,17.3,17.3,74,0.00,,,0.00,Rainwise IP-100,2013-01-10 05:50:00,
2013-01-10 00:55:00,38.0,31.0,29.82,WNW,292,13.1,18.7,73,0.00,,,0.00,Rainwise IP-100,2013-01-10 05:55:00,
2013-01-10 01:00:00,38.0,31.0,29.80,WNW,292,6.5,17.5,73,0.00,,,0.00,Rainwise IP-100,2013-01-10 06:00:00,
2013-01-10 01:05:00,37.8,31.0,29.84,WSW,247,14.7,16.3,73,0.00,,,0.00,Rainwise IP-100,2013-01-10 06:05:00,
2013-01-10 01:10:00,37.7,31.0,29.83,West,270,5.6,14.7,74,0.00,,,0.00,Rainwise IP-100,2013-01-10 06:10:00,
2013-01-10 01:15:00,37.7,31.0,29.83,West,270,6.5,18.0,73,0.00,,,0.00,Rainwise IP-100,2013-01-10 06:15:00,
2013-01-10 01:20:00,37.6,31.0,29.82,WNW,292,4.4,20.3,73,0.00,,,0.00,Rainwise IP-100,2013-01-10 06:20:00,
2013-01-10 01:25:00,37.6,31.0,29.84,WSW,247,14.2,14.2,73,0.00,,,0.00,Rainwise IP-100,2013-01-10 06:25:00,
2013-01-10 01:30:00,37.7,31.0,29.82,WNW,292,9.1,18.2,73,0.00,,,0.00,Rainwise IP-100,2013-01-10 06:30:00,
2013-01-10 01:35:00,37.7,31.0,29.83,WNW,292,5.6,15.2,73,0.00,,,0.00,Rainwise IP-100,2013-01-10 06:35:00,
2013-01-10 01:40:00,37.6,31.0,29.83,West,270,2.8,15.6,73,0.00,,,0.00,Rainwise IP-100,2013-01-10 06:40:00,
2013-01-10 01:45:00,37.5,31.0,29.83,NNW,337,4.9,18.4,73,0.00,,,0.00,Rainwise IP-100,2013-01-10 06:45:00,
2013-01-10 01:50:00,37.4,29.0,29.85,West,270,7.7,11.2,74,0.00,,,0.00,Rainwise IP-100,2013-01-10 06:50:00,
2013-01-10 01:55:00,37.4,29.0,29.85,West,270,9.1,11.2,74,0.00,,,0.00,Rainwise IP-100,2013-01-10 06:55:00,
2013-01-10 02:00:00,37.5,31.0,29.84,WNW,292,4.0,15.4,74,0.00,,,0.00,Rainwise IP-100,2013-01-10 07:00:00,
2013-01-10 02:05:00,37.5,31.0,29.82,West,270,4.2,12.4,74,0.00,,,0.00,Rainwise IP-100,2013-01-10 07:05:00,
2013-01-10 02:10:00,37.4,29.0,29.84,West,270,7.7,14.9,74,0.00,,,0.00,Rainwise IP-100,2013-01-10 07:10:00,
2013-01-10 02:15:00,37.4,29.0,29.85,WNW,292,12.1,18.7,74,0.00,,,0.00,Rainwise IP-100,2013-01-10 07:15:00,
2013-01-10 02:20:00,37.4,29.0,29.84,West,270,9.1,13.5,74,0.00,,,0.00,Rainwise IP-100,2013-01-10 07:20:00,
2013-01-10 02:25:00,37.4,29.0,29.86,West,270,2.1,12.8,74,0.00,,,0.00,Rainwise IP-100,2013-01-10 07:25:00,
2013-01-10 02:30:00,37.4,29.0,29.83,WSW,247,16.8,16.8,74,0.00,,,0.00,Rainwise IP-100,2013-01-10 07:30:00,
2013-01-10 02:35:00,37.3,29.0,29.84,West,270,5.4,16.8,74,0.00,,,0.00,Rainwise IP-100,2013-01-10 07:35:00,
2013-01-10 02:40:00,37.4,29.0,29.84,West,270,7.5,12.4,74,0.00,,,0.00,Rainwise IP-100,2013-01-10 07:40:00,
2013-01-10 02:45:00,37.2,29.0,29.87,NW,315,13.1,13.1,74,0.00,,,0.00,Rainwise IP-100,2013-01-10 07:45:00,
2013-01-10 02:50:00,37.1,29.0,29.86,WNW,292,5.8,15.4,74,0.00,,,0.00,Rainwise IP-100,2013-01-10 07:50:00,
2013-01-10 02:55:00,37.0,29.0,29.85,SW,225,5.8,6.3,74,0.00,,,0.00,Rainwise IP-100,2013-01-10 07:55:00,
2013-01-10 03:00:00,36.9,29.0,29.85,NW,315,3.0,13.1,74,0.00,,,0.00,Rainwise IP-100,2013-01-10 08:00:00,
2013-01-10 03:09:00,36.7,29.0,29.85,NW,315,13.5,13.5,74,0.00,,,0.00,Rainwise IP-100,2013-01-10 08:09:00,
2013-01-10 03:17:00,36.6,29.0,29.87,NNW,337,5.4,0.0,74,0.00,,,0.00,Rainwise IP-100,2013-01-10 08:17:00,
2013-01-10 03:26:00,36.6,31.0,29.87,West,270,7.2,13.1,75,0.00,,,0.00,Rainwise IP-100,2013-01-10 08:26:00,
2013-01-10 03:31:00,36.6,31.0,29.90,West,270,10.0,10.0,75,0.00,,,0.00,Rainwise IP-100,2013-01-10 08:31:00,
2013-01-10 03:38:00,36.6,31.0,29.88,West,270,7.2,10.0,75,0.00,,,0.00,Rainwise IP-100,2013-01-10 08:38:00,
2013-01-10 03:43:00,36.5,31.0,29.86,West,270,4.2,7.2,75,0.00,,,0.00,Rainwise IP-100,2013-01-10 08:43:00,
2013-01-10 03:48:00,36.5,31.0,29.88,WNW,292,5.1,5.1,76,0.00,,,0.00,Rainwise IP-100,2013-01-10 08:48:00,
2013-01-10 03:56:00,36.5,31.0,29.88,WNW,292,5.1,5.1,76,0.00,,,0.00,Rainwise IP-100,2013-01-10 08:56:00,
2013-01-10 04:03:00,36.4,29.0,29.89,WNW,292,4.2,7.0,76,0.00,,,0.00,Rainwise IP-100,2013-01-10 09:03:00,
2013-01-10 04:08:00,36.4,29.0,29.86,West,270,7.9,23.1,76,0.00,,,0.00,Rainwise IP-100,2013-01-10 09:08:00,
2013-01-10 04:13:00,36.5,31.0,29.87,West,270,14.0,15.4,76,0.00,,,0.00,Rainwise IP-100,2013-01-10 09:13:00,
2013-01-10 04:18:00,36.6,31.0,29.86,NW,315,8.4,14.0,76,0.00,,,0.00,Rainwise IP-100,2013-01-10 09:18:00,
2013-01-10 04:23:00,36.6,31.0,29.87,WNW,292,10.0,14.9,76,0.00,,,0.00,Rainwise IP-100,2013-01-10 09:23:00,
2013-01-10 04:28:00,36.6,31.0,29.89,West,270,4.9,11.7,76,0.00,,,0.00,Rainwise IP-100,2013-01-10 09:28:00,
2013-01-10 04:33:00,36.6,31.0,29.89,WSW,247,8.2,11.2,76,0.00,,,0.00,Rainwise IP-100,2013-01-10 09:33:00,
2013-01-10 04:38:00,36.6,31.0,29.88,NNW,337,6.5,18.2,76,0.00,,,0.00,Rainwise IP-100,2013-01-10 09:38:00,
2013-01-10 04:43:00,36.6,31.0,29.90,NW,315,14.0,14.2,76,0.00,,,0.00,Rainwise IP-100,2013-01-10 09:43:00,
2013-01-10 04:48:00,36.6,31.0,29.90,West,270,11.9,14.0,76,0.00,,,0.00,Rainwise IP-100,2013-01-10 09:48:00,
2013-01-10 04:54:00,36.8,31.0,29.90,WNW,292,10.3,15.9,76,0.00,,,0.00,Rainwise IP-100,2013-01-10 09:54:00,
2013-01-10 04:59:00,37.1,31.0,29.90,SSE,157,6.1,14.7,75,0.00,,,0.00,Rainwise IP-100,2013-01-10 09:59:00,
2013-01-10 05:04:00,37.3,29.0,29.88,SW,225,3.3,14.2,74,0.00,,,0.00,Rainwise IP-100,2013-01-10 10:04:00,
2013-01-10 05:09:00,37.4,29.0,29.88,WNW,292,9.6,18.9,74,0.00,,,0.00,Rainwise IP-100,2013-01-10 10:09:00,
2013-01-10 05:14:00,37.4,29.0,29.90,NW,315,6.5,14.7,74,0.00,,,0.00,Rainwise IP-100,2013-01-10 10:14:00,
2013-01-10 05:19:00,37.4,29.0,29.90,WNW,292,13.3,15.6,74,0.00,,,0.00,Rainwise IP-100,2013-01-10 10:19:00,
2013-01-10 05:24:00,37.4,29.0,29.92,WNW,292,2.6,16.6,74,0.00,,,0.00,Rainwise IP-100,2013-01-10 10:24:00,
2013-01-10 05:29:00,37.5,31.0,29.93,NNW,337,7.9,18.9,73,0.00,,,0.00,Rainwise IP-100,2013-01-10 10:29:00,
2013-01-10 05:34:00,37.6,31.0,29.93,NNW,337,20.1,20.3,73,0.00,,,0.00,Rainwise IP-100,2013-01-10 10:34:00,
2013-01-10 05:39:00,37.7,31.0,29.92,NNW,337,8.6,20.1,73,0.00,,,0.00,Rainwise IP-100,2013-01-10 10:39:00,
2013-01-10 05:44:00,37.7,31.0,29.94,West,270,7.9,23.6,73,0.00,,,0.00,Rainwise IP-100,2013-01-10 10:44:00,
2013-01-10 05:49:00,37.8,31.0,29.96,NNW,337,9.8,18.4,72,0.00,,,0.00,Rainwise IP-100,2013-01-10 10:49:00,
2013-01-10 05:54:00,38.0,31.0,29.96,WNW,292,7.5,20.3,72,0.00,,,0.00,Rainwise IP-100,2013-01-10 10:54:00,
2013-01-10 05:59:00,38.1,31.0,29.95,NNW,337,20.3,22.6,72,0.00,,,0.00,Rainwise IP-100,2013-01-10 10:59:00,
2013-01-10 06:04:00,38.1,29.0,29.95,NNW,337,11.9,20.3,71,0.00,,,0.00,Rainwise IP-100,2013-01-10 11:04:00,
2013-01-10 06:09:00,38.2,29.0,29.95,NNW,337,10.7,18.9,70,0.00,,,0.00,Rainwise IP-100,2013-01-10 11:09:00,
2013-01-10 06:14:00,38.4,29.0,29.97,WNW,292,11.9,20.1,69,0.00,,,0.00,Rainwise IP-100,2013-01-10 11:14:00,
2013-01-10 06:19:00,38.6,31.0,29.98,NNW,337,20.3,20.3,69,0.00,,,0.00,Rainwise IP-100,2013-01-10 11:19:00,
2013-01-10 06:24:00,38.6,31.0,29.96,NW,315,15.2,31.0,69,0.00,,,0.00,Rainwise IP-100,2013-01-10 11:24:00,
2013-01-10 06:29:00,38.6,31.0,29.97,WNW,292,9.1,20.8,69,0.00,,,0.00,Rainwise IP-100,2013-01-10 11:29:00,
2013-01-10 06:34:00,38.7,29.0,29.98,NNW,337,14.9,26.1,68,0.00,,,0.00,Rainwise IP-100,2013-01-10 11:34:00,
2013-01-10 06:39:00,38.7,29.0,29.99,NNW,337,11.0,16.3,68,0.00,,,0.00,Rainwise IP-100,2013-01-10 11:39:00,
2013-01-10 06:44:00,38.8,29.0,29.99,WNW,292,8.9,22.9,68,0.00,,,0.00,Rainwise IP-100,2013-01-10 11:44:00,
2013-01-10 06:49:00,38.8,29.0,29.98,NNW,337,24.0,24.0,68,0.00,,,0.00,Rainwise IP-100,2013-01-10 11:49:00,
2013-01-10 06:54:00,38.7,29.0,30.00,NW,315,13.5,24.0,68,0.00,,,0.00,Rainwise IP-100,2013-01-10 11:54:00,
2013-01-10 06:59:00,38.7,29.0,29.98,West,270,12.1,18.7,67,0.00,,,0.00,Rainwise IP-100,2013-01-10 11:59:00,
2013-01-10 07:04:00,38.8,29.0,30.00,WNW,292,16.3,20.8,66,0.00,,,0.00,Rainwise IP-100,2013-01-10 12:04:00,
2013-01-10 07:09:00,38.9,29.0,29.99,NNW,337,18.2,23.3,66,0.00,,,0.00,Rainwise IP-100,2013-01-10 12:09:00,
2013-01-10 07:14:00,39.0,29.0,30.01,NNW,337,10.3,23.8,65,0.00,,,0.00,Rainwise IP-100,2013-01-10 12:14:00,
2013-01-10 07:19:00,39.1,29.0,30.01,NW,315,11.4,24.2,65,0.00,,,0.00,Rainwise IP-100,2013-01-10 12:19:00,
2013-01-10 07:24:00,39.1,28.0,30.03,NNW,337,21.5,23.1,64,0.00,,,0.00,Rainwise IP-100,2013-01-10 12:24:00,
2013-01-10 07:29:00,39.2,28.0,30.04,NNW,337,10.5,21.5,64,0.00,,,0.00,Rainwise IP-100,2013-01-10 12:29:00,
2013-01-10 07:34:00,39.3,28.0,30.03,North,0,8.4,18.2,63,0.00,,,0.00,Rainwise IP-100,2013-01-10 12:34:00,
2013-01-10 07:39:00,39.3,28.0,30.04,NNW,337,15.4,28.2,63,0.00,,,0.00,Rainwise IP-100,2013-01-10 12:39:00,
2013-01-10 07:44:00,39.5,29.0,30.04,NNW,337,7.2,30.3,62,0.00,,,0.00,Rainwise IP-100,2013-01-10 12:44:00,
2013-01-10 07:49:00,39.6,28.0,30.02,NW,315,11.2,21.2,61,0.00,,,0.00,Rainwise IP-100,2013-01-10 12:49:00,
2013-01-10 07:54:00,39.6,29.0,30.05,NW,315,17.5,31.5,62,0.00,,,0.00,Rainwise IP-100,2013-01-10 12:54:00,
2013-01-10 07:59:00,39.7,28.0,30.05,WNW,292,14.2,29.8,61,0.00,,,0.00,Rainwise IP-100,2013-01-10 12:59:00,
2013-01-10 08:04:00,39.7,28.0,30.06,NNW,337,11.4,24.5,61,0.00,,,0.00,Rainwise IP-100,2013-01-10 13:04:00,
2013-01-10 08:09:00,39.7,28.0,30.06,NNW,337,18.4,25.2,61,0.00,,,0.00,Rainwise IP-100,2013-01-10 13:09:00,
2013-01-10 08:14:00,39.9,28.0,30.06,WNW,292,13.3,26.6,60,0.00,,,0.00,Rainwise IP-100,2013-01-10 13:14:00,
2013-01-10 08:19:00,39.9,28.0,30.06,NNW,337,17.5,29.1,60,0.00,,,0.00,Rainwise IP-100,2013-01-10 13:19:00,
2013-01-10 08:24:00,39.9,28.0,30.05,NNW,337,12.4,29.1,61,0.00,,,0.00,Rainwise IP-100,2013-01-10 13:24:00,
2013-01-10 08:29:00,39.8,28.0,30.06,NNW,337,11.4,27.5,61,0.00,,,0.00,Rainwise IP-100,2013-01-10 13:29:00,
2013-01-10 08:34:00,39.6,28.0,30.06,NNW,337,14.0,21.2,61,0.00,,,0.00,Rainwise IP-100,2013-01-10 13:34:00,
2013-01-10 08:39:00,39.6,28.0,30.09,NW,315,9.1,26.1,61,0.00,,,0.00,Rainwise IP-100,2013-01-10 13:39:00,
2013-01-10 08:44:00,39.7,28.0,30.06,NNW,337,10.3,15.2,60,0.00,,,0.00,Rainwise IP-100,2013-01-10 13:44:00,
2013-01-10 08:49:00,39.8,28.0,30.07,NW,315,17.5,19.8,60,0.00,,,0.00,Rainwise IP-100,2013-01-10 13:49:00,
2013-01-10 08:54:00,39.9,28.0,30.06,NNW,337,16.6,23.1,60,0.00,,,0.00,Rainwise IP-100,2013-01-10 13:54:00,
2013-01-10 08:59:00,40.0,28.0,30.07,NW,315,13.5,19.4,60,0.00,,,0.00,Rainwise IP-100,2013-01-10 13:59:00,
2013-01-10 09:04:00,40.0,28.0,30.08,NW,315,10.7,27.5,59,0.00,,,0.00,Rainwise IP-100,2013-01-10 14:04:00,
2013-01-10 09:09:00,40.0,28.0,30.10,NW,315,14.2,20.8,59,0.00,,,0.00,Rainwise IP-100,2013-01-10 14:09:00,
2013-01-10 09:14:00,40.1,28.0,30.09,NNW,337,9.6,14.2,60,0.00,,,0.00,Rainwise IP-100,2013-01-10 14:14:00,
2013-01-10 09:19:00,40.1,28.0,30.08,NW,315,18.7,25.6,60,0.00,,,0.00,Rainwise IP-100,2013-01-10 14:19:00,
2013-01-10 09:24:00,40.0,28.0,30.07,NW,315,21.9,21.9,60,0.00,,,0.00,Rainwise IP-100,2013-01-10 14:24:00,
2013-01-10 09:29:00,40.0,28.0,30.08,NNW,337,10.0,26.8,61,0.00,,,0.00,Rainwise IP-100,2013-01-10 14:29:00,
2013-01-10 09:34:00,40.1,28.0,30.07,NNW,337,7.2,21.9,61,0.00,,,0.00,Rainwise IP-100,2013-01-10 14:34:00,
2013-01-10 09:39:00,40.2,28.0,30.08,NNW,337,22.6,22.6,61,0.00,,,0.00,Rainwise IP-100,2013-01-10 14:39:00,
2013-01-10 09:44:00,40.2,28.0,30.08,NNW,337,18.2,27.3,60,0.00,,,0.00,Rainwise IP-100,2013-01-10 14:44:00,
2013-01-10 09:49:00,40.2,28.0,30.09,NNW,337,13.8,28.2,60,0.00,,,0.00,Rainwise IP-100,2013-01-10 14:49:00,
2013-01-10 09:54:00,40.2,28.0,30.08,NNW,337,14.5,21.7,60,0.00,,,0.00,Rainwise IP-100,2013-01-10 14:54:00,
2013-01-10 09:59:00,40.3,28.0,30.10,NNW,337,21.9,27.0,61,0.00,,,0.00,Rainwise IP-100,2013-01-10 14:59:00,
2013-01-10 10:04:00,40.4,28.0,30.09,NNW,337,19.1,27.3,60,0.00,,,0.00,Rainwise IP-100,2013-01-10 15:04:00,
2013-01-10 10:09:00,40.4,28.0,30.10,NNW,337,15.2,33.6,60,0.00,,,0.00,Rainwise IP-100,2013-01-10 15:09:00,
2013-01-10 10:14:00,40.4,28.0,30.09,NNW,337,18.2,34.3,60,0.00,,,0.00,Rainwise IP-100,2013-01-10 15:14:00,
2013-01-10 10:19:00,40.4,28.0,30.08,WNW,292,9.8,36.4,60,0.00,,,0.00,Rainwise IP-100,2013-01-10 15:19:00,
2013-01-10 10:24:00,40.4,28.0,30.08,NW,315,15.4,29.4,60,0.00,,,0.00,Rainwise IP-100,2013-01-10 15:24:00,
2013-01-10 10:29:00,40.5,29.0,30.08,NNW,337,18.2,24.0,60,0.00,,,0.00,Rainwise IP-100,2013-01-10 15:29:00,
2013-01-10 10:34:00,40.5,29.0,30.10,NW,315,15.4,26.3,60,0.00,,,0.00,Rainwise IP-100,2013-01-10 15:34:00,
2013-01-10 10:39:00,40.6,29.0,30.08,WNW,292,12.6,27.7,60,0.00,,,0.00,Rainwise IP-100,2013-01-10 15:39:00,
2013-01-10 10:44:00,40.6,29.0,30.07,NNW,337,23.3,27.3,60,0.00,,,0.00,Rainwise IP-100,2013-01-10 15:44:00,
2013-01-10 10:49:00,40.6,29.0,30.10,NW,315,18.4,24.7,60,0.06,,,0.01,Rainwise IP-100,2013-01-10 15:49:00,
2013-01-10 10:54:00,40.7,29.0,30.09,West,270,11.4,23.3,60,0.06,,,0.01,Rainwise IP-100,2013-01-10 15:54:00,
2013-01-10 10:59:00,40.8,28.0,30.10,NW,315,8.4,25.6,59,0.00,,,0.01,Rainwise IP-100,2013-01-10 15:59:00,
2013-01-10 11:04:00,40.8,28.0,30.09,NNW,337,16.8,25.2,59,0.00,,,0.01,Rainwise IP-100,2013-01-10 16:04:00,
2013-01-10 11:09:00,41.0,28.0,30.09,North,0,19.4,25.9,58,0.00,,,0.01,Rainwise IP-100,2013-01-10 16:09:00,
2013-01-10 11:14:00,41.1,28.0,30.09,NNW,337,19.8,28.4,58,0.00,,,0.01,Rainwise IP-100,2013-01-10 16:14:00,
2013-01-10 11:19:00,41.0,28.0,30.08,WNW,292,17.0,30.5,58,0.00,,,0.01,Rainwise IP-100,2013-01-10 16:19:00,
2013-01-10 11:24:00,41.0,28.0,30.09,NNW,337,16.8,27.3,58,0.00,,,0.01,Rainwise IP-100,2013-01-10 16:24:00,
2013-01-10 11:29:00,40.9,28.0,30.12,NW,315,16.6,26.8,57,0.00,,,0.01,Rainwise IP-100,2013-01-10 16:29:00,
2013-01-10 11:34:00,41.0,28.0,30.10,NW,315,22.4,33.6,57,0.00,,,0.01,Rainwise IP-100,2013-01-10 16:34:00,
2013-01-10 11:39:00,40.9,28.0,30.09,North,0,13.5,26.1,57,0.00,,,0.01,Rainwise IP-100,2013-01-10 16:39:00,
2013-01-10 11:44:00,40.8,28.0,30.10,NW,315,12.6,25.6,58,0.00,,,0.01,Rainwise IP-100,2013-01-10 16:44:00,
2013-01-10 11:49:00,40.7,28.0,30.10,NNW,337,10.5,26.1,57,0.00,,,0.01,Rainwise IP-100,2013-01-10 16:49:00,
2013-01-10 11:54:00,40.5,28.0,30.12,NNW,337,21.7,33.8,56,0.00,,,0.01,Rainwise IP-100,2013-01-10 16:54:00,
2013-01-10 11:59:00,40.5,26.0,30.10,WNW,292,11.9,29.6,55,0.00,,,0.01,Rainwise IP-100,2013-01-10 16:59:00,
2013-01-10 12:04:00,40.6,26.0,30.10,NNW,337,17.5,29.8,54,0.00,,,0.01,Rainwise IP-100,2013-01-10 17:04:00,
2013-01-10 12:09:00,40.6,26.0,30.09,NW,315,16.3,29.6,54,0.00,,,0.01,Rainwise IP-100,2013-01-10 17:09:00,
2013-01-10 12:14:00,40.7,26.0,30.13,NNW,337,8.4,26.8,54,0.00,,,0.01,Rainwise IP-100,2013-01-10 17:14:00,
2013-01-10 12:19:00,40.9,26.0,30.12,NNW,337,21.5,30.8,53,0.00,,,0.01,Rainwise IP-100,2013-01-10 17:19:00,
2013-01-10 12:24:00,40.8,26.0,30.10,NNE,22,16.3,27.3,54,0.00,,,0.01,Rainwise IP-100,2013-01-10 17:24:00,
2013-01-10 12:29:00,40.6,26.0,30.10,NNW,337,8.4,35.0,55,0.00,,,0.01,Rainwise IP-100,2013-01-10 17:29:00,
2013-01-10 12:34:00,40.6,26.0,30.10,NW,315,26.8,28.9,55,0.00,,,0.01,Rainwise IP-100,2013-01-10 17:34:00,
2013-01-10 12:39:00,40.5,26.0,30.12,NNW,337,8.6,34.7,54,0.00,,,0.01,Rainwise IP-100,2013-01-10 17:39:00,
2013-01-10 12:44:00,40.5,26.0,30.13,NW,315,14.7,31.2,54,0.00,,,0.01,Rainwise IP-100,2013-01-10 17:44:00,
2013-01-10 12:49:00,40.6,26.0,30.11,NNW,337,18.2,25.2,54,0.00,,,0.01,Rainwise IP-100,2013-01-10 17:49:00,
2013-01-10 12:54:00,40.6,26.0,30.12,NNW,337,21.7,26.1,55,0.00,,,0.01,Rainwise IP-100,2013-01-10 17:54:00,
2013-01-10 12:59:00,40.4,26.0,30.12,NNW,337,16.8,27.7,56,0.00,,,0.01,Rainwise IP-100,2013-01-10 17:59:00,
2013-01-10 13:04:00,40.5,28.0,30.11,NNW,337,20.8,28.2,56,0.00,,,0.01,Rainwise IP-100,2013-01-10 18:04:00,
2013-01-10 13:09:00,40.5,28.0,30.13,NNW,337,17.7,23.6,56,0.00,,,0.01,Rainwise IP-100,2013-01-10 18:09:00,
2013-01-10 13:14:00,40.7,26.0,30.11,NNW,337,20.5,35.2,54,0.00,,,0.01,Rainwise IP-100,2013-01-10 18:14:00,
2013-01-10 13:19:00,40.7,26.0,30.12,NW,315,29.6,31.5,53,0.00,,,0.01,Rainwise IP-100,2013-01-10 18:19:00,
2013-01-10 13:24:00,40.6,26.0,30.11,NNW,337,20.3,36.1,53,0.00,,,0.01,Rainwise IP-100,2013-01-10 18:24:00,
2013-01-10 13:29:00,40.6,26.0,30.10,North,0,19.1,37.1,53,0.00,,,0.01,Rainwise IP-100,2013-01-10 18:29:00,
2013-01-10 13:34:00,40.5,26.0,30.10,NNW,337,25.4,37.1,53,0.00,,,0.01,Rainwise IP-100,2013-01-10 18:34:00,
2013-01-10 13:39:00,40.6,26.0,30.10,NNW,337,24.5,35.2,53,0.00,,,0.01,Rainwise IP-100,2013-01-10 18:39:00,
2013-01-10 13:44:00,40.6,26.0,30.13,NNW,337,26.6,32.2,53,0.00,,,0.01,Rainwise IP-100,2013-01-10 18:44:00,
2013-01-10 13:49:00,40.6,26.0,30.11,NNW,337,21.0,35.0,53,0.00,,,0.01,Rainwise IP-100,2013-01-10 18:49:00,
2013-01-10 13:54:00,40.7,26.0,30.15,WNW,292,13.5,34.3,53,0.00,,,0.01,Rainwise IP-100,2013-01-10 18:54:00,
2013-01-10 13:59:00,40.7,26.0,30.13,NNW,337,12.8,33.1,53,0.00,,,0.01,Rainwise IP-100,2013-01-10 18:59:00,
2013-01-10 14:04:00,40.7,26.0,30.14,NNW,337,21.5,29.8,53,0.00,,,0.01,Rainwise IP-100,2013-01-10 19:04:00,
2013-01-10 14:09:00,40.8,26.0,30.15,NNW,337,25.9,30.1,52,0.00,,,0.01,Rainwise IP-100,2013-01-10 19:09:00,
2013-01-10 14:14:00,40.8,26.0,30.12,NNW,337,20.8,32.2,52,0.00,,,0.01,Rainwise IP-100,2013-01-10 19:14:00,
2013-01-10 14:19:00,40.9,26.0,30.15,NNW,337,19.4,29.8,52,0.00,,,0.01,Rainwise IP-100,2013-01-10 19:19:00,
2013-01-10 14:24:00,40.8,26.0,30.14,NNW,337,25.4,33.3,53,0.00,,,0.01,Rainwise IP-100,2013-01-10 19:24:00,
2013-01-10 14:29:00,40.8,26.0,30.14,NNW,337,21.0,31.9,52,0.00,,,0.01,Rainwise IP-100,2013-01-10 19:29:00,
2013-01-10 14:34:00,40.8,26.0,30.14,NNW,337,34.0,34.0,52,0.00,,,0.01,Rainwise IP-100,2013-01-10 19:34:00,
2013-01-10 14:39:00,40.8,26.0,30.12,NNW,337,26.6,35.0,52,0.00,,,0.01,Rainwise IP-100,2013-01-10 19:39:00,
2013-01-10 14:44:00,40.8,26.0,30.17,NNW,337,22.9,34.3,52,0.00,,,0.01,Rainwise IP-100,2013-01-10 19:44:00,
2013-01-10 14:49:00,40.7,26.0,30.16,NW,315,17.3,42.9,52,0.00,,,0.01,Rainwise IP-100,2013-01-10 19:49:00,
2013-01-10 14:54:00,40.6,26.0,30.19,NNW,337,25.6,27.3,52,0.00,,,0.01,Rainwise IP-100,2013-01-10 19:54:00,
2013-01-10 14:59:00,40.6,26.0,30.18,NNW,337,19.4,28.7,52,0.00,,,0.01,Rainwise IP-100,2013-01-10 19:59:00,
2013-01-10 15:04:00,40.4,24.0,30.17,West,270,7.7,27.0,52,0.00,,,0.01,Rainwise IP-100,2013-01-10 20:04:00,
2013-01-10 15:09:00,40.3,24.0,30.20,North,0,5.4,26.8,52,0.00,,,0.01,Rainwise IP-100,2013-01-10 20:09:00,
2013-01-10 15:14:00,40.2,24.0,30.22,NNW,337,18.0,35.7,51,0.00,,,0.01,Rainwise IP-100,2013-01-10 20:14:00,
2013-01-10 15:19:00,40.0,24.0,30.20,NNW,337,15.4,25.4,51,0.00,,,0.01,Rainwise IP-100,2013-01-10 20:19:00,
2013-01-10 15:24:00,39.8,24.0,30.20,NNW,337,14.7,24.7,51,0.00,,,0.01,Rainwise IP-100,2013-01-10 20:24:00,
2013-01-10 15:29:00,39.7,24.0,30.22,NNW,337,4.4,21.0,52,0.00,,,0.01,Rainwise IP-100,2013-01-10 20:29:00,
2013-01-10 15:34:00,39.6,24.0,30.24,NNW,337,17.0,23.3,53,0.00,,,0.01,Rainwise IP-100,2013-01-10 20:34:00,
2013-01-10 15:39:00,39.3,24.0,30.23,NNW,337,18.4,35.2,53,0.00,,,0.01,Rainwise IP-100,2013-01-10 20:39:00,
2013-01-10 15:44:00,39.2,24.0,30.22,WNW,292,14.5,25.6,53,0.00,,,0.01,Rainwise IP-100,2013-01-10 20:44:00,
2013-01-10 15:49:00,39.0,24.0,30.21,NNW,337,21.5,23.8,53,0.00,,,0.01,Rainwise IP-100,2013-01-10 20:49:00,
2013-01-10 15:54:00,38.7,24.0,30.20,NW,315,18.4,22.6,54,0.00,,,0.01,Rainwise IP-100,2013-01-10 20:54:00,
2013-01-10 15:59:00,38.4,24.0,30.23,NNW,337,8.6,22.6,55,0.00,,,0.01,Rainwise IP-100,2013-01-10 20:59:00,
2013-01-10 16:04:00,38.2,24.0,30.25,NNW,337,24.5,24.5,55,0.00,,,0.01,Rainwise IP-100,2013-01-10 21:04:00,
2013-01-10 16:09:00,38.0,24.0,30.22,NNW,337,8.6,25.6,55,0.00,,,0.01,Rainwise IP-100,2013-01-10 21:09:00,
2013-01-10 16:14:00,37.8,24.0,30.24,NNW,337,10.7,20.1,56,0.00,,,0.01,Rainwise IP-100,2013-01-10 21:14:00,
2013-01-10 16:19:00,37.5,24.0,30.26,NNW,337,12.4,20.3,56,0.00,,,0.01,Rainwise IP-100,2013-01-10 21:19:00,
2013-01-10 16:24:00,37.3,23.0,30.24,NW,315,11.2,21.2,56,0.00,,,0.01,Rainwise IP-100,2013-01-10 21:24:00,
2013-01-10 16:29:00,37.2,23.0,30.25,NNW,337,11.7,19.6,56,0.00,,,0.01,Rainwise IP-100,2013-01-10 21:29:00,
2013-01-10 16:34:00,37.1,24.0,30.26,NW,315,18.0,24.5,58,0.00,,,0.01,Rainwise IP-100,2013-01-10 21:34:00,
2013-01-10 16:39:00,37.1,24.0,30.23,NNW,337,17.5,27.7,58,0.00,,,0.01,Rainwise IP-100,2013-01-10 21:39:00,
2013-01-10 16:44:00,37.1,24.0,30.28,NNW,337,19.6,24.9,57,0.00,,,0.01,Rainwise IP-100,2013-01-10 21:44:00,
2013-01-10 16:49:00,36.9,24.0,30.26,NNW,337,19.1,29.6,57,0.00,,,0.01,Rainwise IP-100,2013-01-10 21:49:00,
2013-01-10 16:54:00,36.7,24.0,30.23,NNW,337,18.4,28.9,57,0.00,,,0.01,Rainwise IP-100,2013-01-10 21:54:00,
2013-01-10 16:59:00,36.6,24.0,30.26,NNW,337,15.9,27.5,58,0.00,,,0.01,Rainwise IP-100,2013-01-10 21:59:00,
2013-01-10 17:04:00,36.5,24.0,30.27,NNW,337,22.2,26.1,58,0.00,,,0.01,Rainwise IP-100,2013-01-10 22:04:00,
2013-01-10 17:09:00,36.4,23.0,30.29,NNW,337,12.6,24.7,58,0.00,,,0.01,Rainwise IP-100,2013-01-10 22:09:00,
2013-01-10 17:14:00,36.2,23.0,30.27,NNW,337,15.6,27.0,58,0.00,,,0.01,Rainwise IP-100,2013-01-10 22:14:00,
2013-01-10 17:19:00,36.1,23.0,30.29,NNW,337,17.0,21.7,59,0.00,,,0.01,Rainwise IP-100,2013-01-10 22:19:00,
2013-01-10 17:24:00,35.9,24.0,30.28,NNW,337,12.8,21.7,60,0.00,,,0.01,Rainwise IP-100,2013-01-10 22:24:00,
2013-01-10 17:29:00,35.7,24.0,30.30,NNW,337,18.2,21.0,61,0.00,,,0.01,Rainwise IP-100,2013-01-10 22:29:00,
2013-01-10 17:34:00,35.5,24.0,30.31,NNW,337,11.7,18.2,61,0.00,,,0.01,Rainwise IP-100,2013-01-10 22:34:00,
2013-01-10 17:39:00,35.2,23.0,30.31,NNW,337,10.7,14.9,60,0.00,,,0.01,Rainwise IP-100,2013-01-10 22:39:00,
2013-01-10 17:44:00,34.9,23.0,30.32,NNW,337,6.3,17.7,60,0.00,,,0.01,Rainwise IP-100,2013-01-10 22:44:00,
2013-01-10 17:49:00,34.9,23.0,30.33,NNW,337,16.3,23.8,60,0.00,,,0.01,Rainwise IP-100,2013-01-10 22:49:00,
2013-01-10 17:54:00,34.9,23.0,30.31,NNW,337,27.5,28.4,60,0.00,,,0.01,Rainwise IP-100,2013-01-10 22:54:00,
2013-01-10 17:59:00,34.9,23.0,30.33,NNW,337,19.6,29.6,60,0.00,,,0.01,Rainwise IP-100,2013-01-10 22:59:00,
2013-01-10 18:04:00,34.8,23.0,30.30,NNW,337,8.4,24.5,61,0.00,,,0.01,Rainwise IP-100,2013-01-10 23:04:00,
2013-01-10 18:09:00,34.7,23.0,30.31,NW,315,17.5,25.9,61,0.00,,,0.01,Rainwise IP-100,2013-01-10 23:09:00,
2013-01-10 18:14:00,34.6,23.0,30.33,NNW,337,14.2,29.8,60,0.00,,,0.01,Rainwise IP-100,2013-01-10 23:14:00,
2013-01-10 18:19:00,34.5,23.0,30.32,NNW,337,16.6,23.6,60,0.00,,,0.01,Rainwise IP-100,2013-01-10 23:19:00,
2013-01-10 18:24:00,34.3,23.0,30.30,NW,315,15.4,25.9,60,0.00,,,0.01,Rainwise IP-100,2013-01-10 23:24:00,
2013-01-10 18:29:00,34.2,23.0,30.33,NNW,337,12.8,24.0,60,0.00,,,0.01,Rainwise IP-100,2013-01-10 23:29:00,
2013-01-10 18:34:00,34.1,23.0,30.32,NNW,337,15.2,21.7,61,0.00,,,0.01,Rainwise IP-100,2013-01-10 23:34:00,
2013-01-10 18:39:00,34.1,23.0,30.33,NNW,337,13.8,25.6,61,0.00,,,0.01,Rainwise IP-100,2013-01-10 23:39:00,
2013-01-10 18:44:00,34.1,23.0,30.33,NNE,22,18.7,31.2,61,0.00,,,0.01,Rainwise IP-100,2013-01-10 23:44:00,
2013-01-10 18:49:00,34.0,23.0,30.34,NNW,337,13.8,29.6,61,0.00,,,0.01,Rainwise IP-100,2013-01-10 23:49:00,
2013-01-10 18:54:00,34.0,23.0,30.35,NNW,337,13.1,25.2,61,0.00,,,0.01,Rainwise IP-100,2013-01-10 23:54:00,
2013-01-10 18:59:00,34.0,23.0,30.37,NNW,337,20.3,23.3,62,0.00,,,0.01,Rainwise IP-100,2013-01-10 23:59:00,
2013-01-10 19:04:00,33.8,23.0,30.34,NNE,22,10.7,26.1,62,0.00,,,0.01,Rainwise IP-100,2013-01-11 00:04:00,
2013-01-10 19:09:00,33.8,23.0,30.36,NW,315,6.1,22.4,61,0.00,,,0.01,Rainwise IP-100,2013-01-11 00:09:00,
2013-01-10 19:14:00,33.7,23.0,30.37,WNW,292,10.0,18.4,61,0.00,,,0.01,Rainwise IP-100,2013-01-11 00:14:00,
2013-01-10 19:19:00,33.6,23.0,30.38,NW,315,11.2,21.7,61,0.00,,,0.01,Rainwise IP-100,2013-01-11 00:19:00,
2013-01-10 19:24:00,33.6,23.0,30.37,NNW,337,16.8,18.9,61,0.00,,,0.01,Rainwise IP-100,2013-01-11 00:24:00,
2013-01-10 19:29:00,33.6,23.0,30.36,NNW,337,7.9,17.7,61,0.00,,,0.01,Rainwise IP-100,2013-01-11 00:29:00,
2013-01-10 19:34:00,33.6,23.0,30.38,NNW,337,7.0,17.7,61,0.00,,,0.01,Rainwise IP-100,2013-01-11 00:34:00,
2013-01-10 19:39:00,33.6,23.0,30.37,NW,315,11.2,18.7,61,0.00,,,0.01,Rainwise IP-100,2013-01-11 00:39:00,
2013-01-10 19:44:00,33.5,23.0,30.39,NNW,337,7.2,15.6,62,0.00,,,0.01,Rainwise IP-100,2013-01-11 00:44:00,
2013-01-10 19:49:00,33.3,23.0,30.42,NNW,337,6.5,16.3,62,0.00,,,0.01,Rainwise IP-100,2013-01-11 00:49:00,
2013-01-10 19:54:00,33.2,23.0,30.39,NNW,337,8.9,15.4,62,0.00,,,0.01,Rainwise IP-100,2013-01-11 00:54:00,
2013-01-10 19:59:00,33.1,23.0,30.39,WNW,292,9.6,13.3,62,0.00,,,0.01,Rainwise IP-100,2013-01-11 00:59:00,
2013-01-10 20:04:00,33.1,23.0,30.39,NW,315,13.3,20.1,62,0.00,,,0.01,Rainwise IP-100,2013-01-11 01:04:00,
2013-01-10 20:09:00,33.1,23.0,30.39,NNW,337,7.5,20.1,62,0.00,,,0.01,Rainwise IP-100,2013-01-11 01:09:00,
2013-01-10 20:14:00,33.0,23.0,30.39,NW,315,13.1,21.0,63,0.00,,,0.01,Rainwise IP-100,2013-01-11 01:14:00,
2013-01-10 20:19:00,32.9,23.0,30.37,NNW,337,9.6,18.0,62,0.00,,,0.01,Rainwise IP-100,2013-01-11 01:19:00,
2013-01-10 20:24:00,32.9,23.0,30.39,NNW,337,13.8,18.0,63,0.00,,,0.01,Rainwise IP-100,2013-01-11 01:24:00,
2013-01-10 20:29:00,32.9,23.0,30.42,NNW,337,14.9,20.3,64,0.00,,,0.01,Rainwise IP-100,2013-01-11 01:29:00,
2013-01-10 20:34:00,32.8,23.0,30.40,NNW,337,11.9,18.4,64,0.00,,,0.01,Rainwise IP-100,2013-01-11 01:34:00,
2013-01-10 20:39:00,32.6,23.0,30.39,NNW,337,8.4,14.7,63,0.00,,,0.01,Rainwise IP-100,2013-01-11 01:39:00,
2013-01-10 20:44:00,32.4,21.0,30.41,WNW,292,7.2,16.1,63,0.00,,,0.01,Rainwise IP-100,2013-01-11 01:44:00,
2013-01-10 20:49:00,32.2,21.0,30.40,NNW,337,11.2,14.5,63,0.00,,,0.01,Rainwise IP-100,2013-01-11 01:49:00,
2013-01-10 20:54:00,32.1,21.0,30.42,NNW,337,9.3,18.9,63,0.00,,,0.01,Rainwise IP-100,2013-01-11 01:54:00,
2013-01-10 20:59:00,32.1,21.0,30.40,NNW,337,10.5,14.0,63,0.00,,,0.01,Rainwise IP-100,2013-01-11 01:59:00,
2013-01-10 21:04:00,32.0,21.0,30.43,NNW,337,14.7,15.2,63,0.00,,,0.01,Rainwise IP-100,2013-01-11 02:04:00,
2013-01-10 21:09:00,32.0,21.0,30.43,NNW,337,14.5,17.3,63,0.00,,,0.01,Rainwise IP-100,2013-01-11 02:09:00,
2013-01-10 21:14:00,32.1,21.0,30.40,NNW,337,14.7,16.3,63,0.00,,,0.01,Rainwise IP-100,2013-01-11 02:14:00,
2013-01-10 21:19:00,32.1,21.0,30.42,NNW,337,9.8,14.7,63,0.00,,,0.01,Rainwise IP-100,2013-01-11 02:19:00,
2013-01-10 21:24:00,32.0,21.0,30.42,NNW,337,3.0,12.4,63,0.00,,,0.01,Rainwise IP-100,2013-01-11 02:24:00,
2013-01-10 21:29:00,31.9,21.0,30.44,NNW,337,5.6,11.0,63,0.00,,,0.01,Rainwise IP-100,2013-01-11 02:29:00,
2013-01-10 21:34:00,31.7,21.0,30.45,NNW,337,8.4,11.4,63,0.00,,,0.01,Rainwise IP-100,2013-01-11 02:34:00,
2013-01-10 21:39:00,31.6,23.0,30.42,NNW,337,6.3,11.4,64,0.00,,,0.01,Rainwise IP-100,2013-01-11 02:39:00,
2013-01-10 21:44:00,31.6,23.0,30.43,NNW,337,7.9,10.7,64,0.00,,,0.01,Rainwise IP-100,2013-01-11 02:44:00,
2013-01-10 21:49:00,31.5,23.0,30.43,NNW,337,5.6,10.7,64,0.00,,,0.01,Rainwise IP-100,2013-01-11 02:49:00,
2013-01-10 21:54:00,31.3,21.0,30.44,NNW,337,7.9,9.8,64,0.00,,,0.01,Rainwise IP-100,2013-01-11 02:54:00,
2013-01-10 21:59:00,31.1,21.0,30.46,NW,315,5.8,11.0,64,0.00,,,0.01,Rainwise IP-100,2013-01-11 02:59:00,
2013-01-10 22:04:00,30.8,21.0,30.47,NNW,337,6.5,7.9,64,0.00,,,0.01,Rainwise IP-100,2013-01-11 03:04:00,
2013-01-10 22:09:00,30.7,21.0,30.46,WNW,292,7.7,10.3,65,0.00,,,0.01,Rainwise IP-100,2013-01-11 03:09:00,
2013-01-10 22:14:00,30.7,21.0,30.46,NNW,337,3.3,11.2,65,0.00,,,0.01,Rainwise IP-100,2013-01-11 03:14:00,
2013-01-10 22:19:00,30.6,21.0,30.44,NW,315,4.4,9.3,65,0.00,,,0.01,Rainwise IP-100,2013-01-11 03:19:00,
2013-01-10 22:24:00,30.4,21.0,30.47,NW,315,4.2,8.6,65,0.00,,,0.01,Rainwise IP-100,2013-01-11 03:24:00,
2013-01-10 22:29:00,30.4,21.0,30.44,NNW,337,3.0,8.9,65,0.00,,,0.01,Rainwise IP-100,2013-01-11 03:29:00,
2013-01-10 22:34:00,30.2,21.0,30.45,WNW,292,6.1,6.5,65,0.00,,,0.01,Rainwise IP-100,2013-01-11 03:34:00,
2013-01-10 22:39:00,30.2,21.0,30.45,NNW,337,3.3,8.6,65,0.00,,,0.01,Rainwise IP-100,2013-01-11 03:39:00,
2013-01-10 22:44:00,30.2,21.0,30.45,NW,315,10.5,10.5,65,0.00,,,0.01,Rainwise IP-100,2013-01-11 03:44:00,
2013-01-10 22:49:00,30.3,21.0,30.46,WNW,292,5.1,14.5,65,0.00,,,0.01,Rainwise IP-100,2013-01-11 03:49:00,
2013-01-10 22:54:00,30.4,21.0,30.45,NNW,337,8.6,16.3,65,0.00,,,0.01,Rainwise IP-100,2013-01-11 03:54:00,
2013-01-10 22:59:00,30.6,21.0,30.46,NW,315,6.3,12.1,65,0.00,,,0.01,Rainwise IP-100,2013-01-11 03:59:00,
2013-01-10 23:04:00,30.6,21.0,30.45,NW,315,3.5,11.2,65,0.00,,,0.01,Rainwise IP-100,2013-01-11 04:04:00,
2013-01-10 23:09:00,30.4,21.0,30.47,NW,315,8.2,8.9,65,0.00,,,0.01,Rainwise IP-100,2013-01-11 04:09:00,
2013-01-10 23:14:00,30.2,21.0,30.47,NNW,337,3.0,10.3,65,0.00,,,0.01,Rainwise IP-100,2013-01-11 04:14:00,
2013-01-10 23:19:00,30.2,21.0,30.48,WNW,292,5.4,12.1,65,0.00,,,0.01,Rainwise IP-100,2013-01-11 04:19:00,
2013-01-10 23:24:00,30.1,21.0,30.47,NW,315,4.7,11.2,65,0.00,,,0.01,Rainwise IP-100,2013-01-11 04:24:00,
2013-01-10 23:29:00,30.1,21.0,30.49,NW,315,5.1,11.2,65,0.00,,,0.01,Rainwise IP-100,2013-01-11 04:29:00,
2013-01-10 23:34:00,30.1,21.0,30.48,NNW,337,5.6,10.0,65,0.00,,,0.01,Rainwise IP-100,2013-01-11 04:34:00,
2013-01-10 23:39:00,30.1,21.0,30.48,NNW,337,2.1,14.0,65,0.00,,,0.01,Rainwise IP-100,2013-01-11 04:39:00,
2013-01-10 23:44:00,29.9,21.0,30.46,WNW,292,3.3,11.0,65,0.00,,,0.01,Rainwise IP-100,2013-01-11 04:44:00,
2013-01-10 23:49:00,29.9,21.0,30.50,WNW,292,4.7,10.0,65,0.00,,,0.01,Rainwise IP-100,2013-01-11 04:49:00,
2013-01-10 23:54:00,29.8,21.0,30.47,WNW,292,3.0,10.3,65,0.00,,,0.01,Rainwise IP-100,2013-01-11 04:54:00,
2013-01-10 23:59:00,29.6,21.0,30.48,NW,315,3.5,9.8,65,0.00,,,0.01,Rainwise IP-100,2013-01-11 04:59:00,